,,PA_Meas_PMT16A,,PR_Meas_QMR101_102,,RH_Meas_QMH101,,SR_Meas_QMS101,,TA_Meas_QMH101,,GenWind,,GenWind,
time,status,PA,status,PR,status,RH,status,SR,status,TA,status,DirAvg,status,SpdAvg,
2011-12-27, 00:00:04,VALID,917.995,VALID,0,VALID,93.9434,VALID,0,VALID,20.3074,VALID,149,VALID,0.496094,
2011-12-27, 00:01:04,VALID,917.963,VALID,0,VALID,93.9815,VALID,0,VALID,20.2863,VALID,150,VALID,0.837109,
2011-12-27, 00:02:04,VALID,917.947,VALID,0,VALID,93.9815,VALID,0,VALID,20.2863,VALID,149,VALID,0.678516,
2011-12-27, 00:03:04,VALID,917.934,VALID,0,VALID,93.8824,VALID,0,VALID,20.3253,VALID,150,VALID,0.733984,
2011-12-27, 00:04:04,VALID,917.96,VALID,0,VALID,93.7223,VALID,0,VALID,20.3448,VALID,149,VALID,1.24063,
2011-12-27, 00:05:04,VALID,917.944,VALID,0,VALID,93.4555,VALID,0,VALID,20.3838,VALID,149,VALID,0.916016,
2011-12-27, 00:06:04,VALID,917.908,VALID,0,VALID,93.2649,VALID,0,VALID,20.4439,VALID,149,VALID,1.36445,
2011-12-27, 00:07:04,VALID,917.887,VALID,0,VALID,93.1353,VALID,0,VALID,20.4603,VALID,149,VALID,1.35547,
2011-12-27, 00:08:04,VALID,917.891,VALID,0,VALID,92.9066,VALID,0,VALID,20.5204,VALID,149,VALID,1.06914,
2011-12-27, 00:09:04,VALID,917.876,VALID,0,VALID,92.7389,VALID,0.107441,VALID,20.5594,VALID,149,VALID,1.10547,
2011-12-27, 00:10:04,VALID,917.866,VALID,0,VALID,92.594,VALID,0,VALID,20.5789,VALID,149,VALID,1.43203,
2011-12-27, 00:11:04,VALID,917.851,VALID,0,VALID,92.5864,VALID,0.107441,VALID,20.5789,VALID,150,VALID,1.27109,
2011-12-27, 00:12:04,VALID,917.851,VALID,0,VALID,92.5788,VALID,0,VALID,20.5578,VALID,132,VALID,1.39531,
2011-12-27, 00:13:04,VALID,917.846,VALID,0,VALID,92.5559,VALID,0,VALID,20.5984,VALID,131,VALID,0.958594,
2011-12-27, 00:14:04,VALID,917.838,VALID,0,VALID,92.6093,VALID,0.107441,VALID,20.5984,VALID,131,VALID,0.951563,
2011-12-27, 00:15:04,VALID,917.848,VALID,0,VALID,92.6474,VALID,0,VALID,20.5984,VALID,131,VALID,0.884375,
2011-12-27, 00:16:04,VALID,917.854,VALID,0,VALID,92.6397,VALID,0.107441,VALID,20.5984,VALID,131,VALID,0.65,
2011-12-27, 00:17:04,VALID,917.837,VALID,0,VALID,92.6702,VALID,0.107441,VALID,20.5789,VALID,131,VALID,0.441406,
2011-12-27, 00:18:04,VALID,917.829,VALID,0,VALID,92.7693,VALID,0,VALID,20.5789,VALID,131,VALID,0.379297,
2011-12-27, 00:19:04,VALID,917.823,VALID,0,VALID,92.8075,VALID,0,VALID,20.5578,VALID,131,VALID,0.571875,
2011-12-27, 00:20:04,VALID,917.814,VALID,0,VALID,92.8075,VALID,0.107441,VALID,20.5789,VALID,131,VALID,0.490234,
2011-12-27, 00:21:04,VALID,917.85,VALID,0,VALID,92.838,VALID,0,VALID,20.5789,VALID,131,VALID,0.611719,
2011-12-27, 00:22:04,VALID,917.824,VALID,0,VALID,92.8685,VALID,0,VALID,20.5984,VALID,131,VALID,0.579297,
2011-12-27, 00:23:04,VALID,917.813,VALID,0,VALID,92.8837,VALID,0.107441,VALID,20.5789,VALID,131,VALID,1.15273,
2011-12-27, 00:24:04,VALID,917.791,VALID,0,VALID,92.9981,VALID,0,VALID,20.5594,VALID,132,VALID,0.734375,
2011-12-27, 00:25:04,VALID,917.77,VALID,0,VALID,93.0743,VALID,0.107441,VALID,20.5594,VALID,132,VALID,0.88125,
2011-12-27, 00:26:04,VALID,917.765,VALID,0,VALID,93.1581,VALID,0.107441,VALID,20.5204,VALID,147,VALID,0.635938,
2011-12-27, 00:27:04,VALID,917.753,VALID,0,VALID,93.242,VALID,0,VALID,20.5204,VALID,147,VALID,0.499609,
2011-12-27, 00:28:04,VALID,917.74,VALID,0,VALID,93.3106,VALID,0.107441,VALID,20.5009,VALID,147,VALID,0.406641,
2011-12-27, 00:29:04,VALID,917.704,VALID,0,VALID,93.3487,VALID,0.107441,VALID,20.4603,VALID,147,VALID,0.610156,
2011-12-27, 00:30:04,VALID,917.703,VALID,0,VALID,93.3868,VALID,0,VALID,20.4813,VALID,147,VALID,0.752344,
2011-12-27, 00:31:04,VALID,917.702,VALID,0,VALID,93.4021,VALID,0,VALID,20.4813,VALID,147,VALID,0.640625,
2011-12-27, 00:32:04,VALID,917.689,VALID,0,VALID,93.3868,VALID,0.107441,VALID,20.4603,VALID,147,VALID,0.733203,
2011-12-27, 00:33:04,VALID,917.665,VALID,0,VALID,93.4173,VALID,0,VALID,20.4813,VALID,147,VALID,0.894922,
2011-12-27, 00:34:04,VALID,917.61,VALID,0,VALID,93.425,VALID,0,VALID,20.4618,VALID,147,VALID,0.944141,
2011-12-27, 00:35:04,VALID,917.589,VALID,0,VALID,93.4783,VALID,0,VALID,20.4423,VALID,147,VALID,1.00039,
2011-12-27, 00:36:04,VALID,917.601,VALID,0,VALID,93.5546,VALID,0,VALID,20.4228,VALID,147,VALID,0.853516,
2011-12-27, 00:37:04,VALID,917.603,VALID,0,VALID,93.6308,VALID,0.107441,VALID,20.4033,VALID,147,VALID,0.202344,
2011-12-27, 00:38:04,VALID,917.605,VALID,0,VALID,93.5927,VALID,0.107441,VALID,20.3838,VALID,147,VALID,0.544922,
2011-12-27, 00:39:04,VALID,917.606,VALID,0,VALID,93.5774,VALID,0.107441,VALID,20.3838,VALID,147,VALID,0.475,
2011-12-27, 00:40:04,VALID,917.612,VALID,0,VALID,93.5241,VALID,0.107441,VALID,20.3643,VALID,147,VALID,0.814844,
2011-12-27, 00:41:04,VALID,917.628,VALID,0,VALID,93.4021,VALID,0.107441,VALID,20.4033,VALID,147,VALID,0.402734,
2011-12-27, 00:42:04,VALID,917.61,VALID,0,VALID,93.242,VALID,0,VALID,20.4213,VALID,147,VALID,0,
2011-12-27, 00:43:04,VALID,917.608,VALID,0,VALID,93.1353,VALID,0.107441,VALID,20.4423,VALID,147,VALID,0.00507812,
2011-12-27, 00:44:04,VALID,917.594,VALID,0,VALID,93.1276,VALID,0,VALID,20.4408,VALID,147,VALID,0.285156,
2011-12-27, 00:45:04,VALID,917.571,VALID,0,VALID,93.0438,VALID,0,VALID,20.4618,VALID,147,VALID,1.3125,
2011-12-27, 00:46:04,VALID,917.523,VALID,0,VALID,92.9599,VALID,0,VALID,20.4618,VALID,147,VALID,0.560547,
2011-12-27, 00:47:04,VALID,917.535,VALID,0,VALID,92.8532,VALID,0.107441,VALID,20.4813,VALID,147,VALID,0.784375,
2011-12-27, 00:48:04,VALID,917.513,VALID,0,VALID,92.8227,VALID,0.107441,VALID,20.4603,VALID,147,VALID,0.803516,
2011-12-27, 00:49:04,VALID,917.495,VALID,0,VALID,92.7922,VALID,0.107441,VALID,20.5009,VALID,147,VALID,1.17148,
2011-12-27, 00:50:04,VALID,917.491,VALID,0,VALID,92.6855,VALID,0,VALID,20.5009,VALID,147,VALID,0.759375,
2011-12-27, 00:51:04,VALID,917.478,VALID,0,VALID,92.6245,VALID,0.107441,VALID,20.5204,VALID,147,VALID,0.564453,
2011-12-27, 00:52:04,VALID,917.407,VALID,0,VALID,92.5025,VALID,0,VALID,20.5399,VALID,147,VALID,1.06875,
2011-12-27, 00:53:04,VALID,917.391,VALID,0,VALID,92.3729,VALID,0,VALID,20.5188,VALID,147,VALID,1.29375,
2011-12-27, 00:54:04,VALID,917.377,VALID,0,VALID,92.2128,VALID,0,VALID,20.5594,VALID,147,VALID,0.979688,
2011-12-27, 00:55:04,VALID,917.323,VALID,0,VALID,92.0375,VALID,0,VALID,20.5594,VALID,147,VALID,0.980469,
2011-12-27, 00:56:04,VALID,917.353,VALID,0,VALID,91.7783,VALID,0.107441,VALID,20.5594,VALID,142,VALID,1.92617,
2011-12-27, 00:57:04,VALID,917.346,VALID,0,VALID,91.5801,VALID,0.107441,VALID,20.5578,VALID,156,VALID,0.969531,
2011-12-27, 00:58:04,VALID,917.358,VALID,0,VALID,91.237,VALID,0.107441,VALID,20.6179,VALID,136,VALID,1.78789,
2011-12-27, 00:59:04,VALID,917.356,VALID,0,VALID,91.0541,VALID,0,VALID,20.6358,VALID,130,VALID,1.67617,
2011-12-27, 01:00:04,VALID,917.379,VALID,0,VALID,90.9778,VALID,0,VALID,20.6569,VALID,133,VALID,0.682031,
2011-12-27, 01:01:04,VALID,917.395,VALID,0,VALID,90.8864,VALID,0,VALID,20.6764,VALID,143,VALID,1.74688,
2011-12-27, 01:02:04,VALID,917.393,VALID,0,VALID,90.8254,VALID,0.107441,VALID,20.6553,VALID,147,VALID,1.08711,
2011-12-27, 01:03:04,VALID,917.383,VALID,0,VALID,90.6043,VALID,0.107441,VALID,20.6959,VALID,137,VALID,1.79727,
2011-12-27, 01:04:04,VALID,917.372,VALID,0,VALID,90.4976,VALID,0,VALID,20.7154,VALID,127,VALID,1.45039,
2011-12-27, 01:05:04,VALID,917.358,VALID,0,VALID,90.4442,VALID,0,VALID,20.7154,VALID,137,VALID,0.882422,
2011-12-27, 01:06:04,VALID,917.327,VALID,0,VALID,90.2079,VALID,0.107441,VALID,20.7349,VALID,147,VALID,1.32383,
2011-12-27, 01:07:04,VALID,917.294,VALID,0,VALID,89.9563,VALID,0,VALID,20.7739,VALID,157,VALID,1.46055,
2011-12-27, 01:08:04,VALID,917.268,VALID,0,VALID,89.4074,VALID,0,VALID,20.873,VALID,172,VALID,1.64258,
2011-12-27, 01:09:04,VALID,917.266,VALID,0,VALID,89.0949,VALID,0,VALID,20.9105,VALID,123,VALID,0.969531,
2011-12-27, 01:10:04,VALID,917.286,VALID,0,VALID,89.0567,VALID,0,VALID,20.9495,VALID,123,VALID,0.000390625,
2011-12-27, 01:11:04,VALID,917.304,VALID,0,VALID,88.7975,VALID,0,VALID,20.9495,VALID,173,VALID,0.586328,
2011-12-27, 01:12:04,VALID,917.317,VALID,0,VALID,88.6527,VALID,0,VALID,20.969,VALID,173,VALID,0.360938,
2011-12-27, 01:13:04,VALID,917.344,VALID,0,VALID,89.3998,VALID,0,VALID,20.9901,VALID,173,VALID,0.933594,
2011-12-27, 01:14:04,VALID,917.348,VALID,0,VALID,89.9944,VALID,0,VALID,20.8894,VALID,173,VALID,0.078125,
2011-12-27, 01:15:04,VALID,917.358,VALID,0,VALID,90.5967,VALID,0,VALID,20.8519,VALID,173,VALID,0.723828,
2011-12-27, 01:16:04,VALID,917.377,VALID,0,VALID,91.3285,VALID,0,VALID,20.7154,VALID,173,VALID,0.186719,
2011-12-27, 01:17:04,VALID,917.368,VALID,0,VALID,91.8088,VALID,0,VALID,20.678,VALID,173,VALID,0,
2011-12-27, 01:18:04,VALID,917.388,VALID,0,VALID,91.885,VALID,0,VALID,20.6179,VALID,329,VALID,0.622266,
2011-12-27, 01:19:04,VALID,917.412,VALID,0,VALID,92.1137,VALID,0.107441,VALID,20.5578,VALID,329,VALID,0.433594,
2011-12-27, 01:20:04,VALID,917.385,VALID,0,VALID,92.3729,VALID,0,VALID,20.5399,VALID,329,VALID,0.0734375,
2011-12-27, 01:21:04,VALID,917.391,VALID,0,VALID,92.594,VALID,0,VALID,20.5009,VALID,329,VALID,0.0359375,
2011-12-27, 01:22:04,VALID,917.398,VALID,0,VALID,92.7084,VALID,0,VALID,20.4813,VALID,329,VALID,0,
2011-12-27, 01:23:04,VALID,917.413,VALID,0,VALID,92.7922,VALID,0,VALID,20.4618,VALID,329,VALID,0,
2011-12-27, 01:24:04,VALID,917.424,VALID,0,VALID,92.8227,VALID,0,VALID,20.4618,VALID,329,VALID,0,
2011-12-27, 01:25:04,VALID,917.411,VALID,0,VALID,92.9447,VALID,0,VALID,20.4423,VALID,329,VALID,0.0496094,
2011-12-27, 01:26:04,VALID,917.395,VALID,0,VALID,93.0209,VALID,0.107441,VALID,20.4618,VALID,329,VALID,0,
2011-12-27, 01:27:04,VALID,917.367,VALID,0,VALID,92.9676,VALID,0,VALID,20.4618,VALID,329,VALID,0,
2011-12-27, 01:28:04,VALID,917.375,VALID,0,VALID,92.8989,VALID,0,VALID,20.4618,VALID,329,VALID,0,
2011-12-27, 01:29:04,VALID,917.342,VALID,0,VALID,92.8608,VALID,0,VALID,20.4813,VALID,329,VALID,0.126953,
2011-12-27, 01:30:04,VALID,917.35,VALID,0,VALID,92.6245,VALID,0.107441,VALID,20.5009,VALID,329,VALID,0.701953,
2011-12-27, 01:31:04,VALID,917.333,VALID,0,VALID,92.3424,VALID,0,VALID,20.5009,VALID,151,VALID,0.641406,
2011-12-27, 01:32:04,VALID,917.331,VALID,0,VALID,91.8622,VALID,0,VALID,20.5399,VALID,151,VALID,0.643359,
2011-12-27, 01:33:04,VALID,917.327,VALID,0,VALID,91.6487,VALID,0,VALID,20.5984,VALID,144,VALID,0.998828,
2011-12-27, 01:34:04,VALID,917.313,VALID,0,VALID,91.5953,VALID,0,VALID,20.6179,VALID,141,VALID,0.255859,
2011-12-27, 01:35:04,VALID,917.246,VALID,0,VALID,91.3666,VALID,0,VALID,20.6179,VALID,141,VALID,0.545313,
2011-12-27, 01:36:04,VALID,917.265,VALID,0,VALID,91.298,VALID,0,VALID,20.6374,VALID,156,VALID,0.350391,
2011-12-27, 01:37:04,VALID,917.239,VALID,0,VALID,91.0541,VALID,0,VALID,20.6374,VALID,143,VALID,0.804297,
2011-12-27, 01:38:04,VALID,917.248,VALID,0,VALID,90.65,VALID,0,VALID,20.6975,VALID,145,VALID,0.711719,
2011-12-27, 01:39:04,VALID,917.241,VALID,0,VALID,90.3527,VALID,0,VALID,20.6959,VALID,145,VALID,0.926562,
2011-12-27, 01:40:04,VALID,917.232,VALID,0,VALID,90.1088,VALID,0,VALID,20.7544,VALID,145,VALID,0.268359,
2011-12-27, 01:41:04,VALID,917.244,VALID,0,VALID,89.8572,VALID,0,VALID,20.7739,VALID,145,VALID,0.995313,
2011-12-27, 01:42:04,VALID,917.197,VALID,0,VALID,89.9334,VALID,0.107441,VALID,20.7739,VALID,145,VALID,0.330859,
2011-12-27, 01:43:04,VALID,917.216,VALID,0,VALID,89.8725,VALID,0.107441,VALID,20.7739,VALID,145,VALID,0.617969,
2011-12-27, 01:44:04,VALID,917.184,VALID,0,VALID,89.842,VALID,0,VALID,20.7739,VALID,145,VALID,0.258594,
2011-12-27, 01:45:04,VALID,917.184,VALID,0,VALID,89.8953,VALID,0,VALID,20.7934,VALID,145,VALID,0.0253906,
2011-12-27, 01:46:04,VALID,917.191,VALID,0,VALID,89.6971,VALID,0,VALID,20.7934,VALID,145,VALID,0.492188,
2011-12-27, 01:47:04,VALID,917.199,VALID,0,VALID,89.5828,VALID,0,VALID,20.7934,VALID,145,VALID,0.826563,
2011-12-27, 01:48:04,VALID,917.182,VALID,0,VALID,89.4913,VALID,0,VALID,20.8129,VALID,145,VALID,0.739062,
2011-12-27, 01:49:04,VALID,917.169,VALID,0,VALID,89.2168,VALID,0,VALID,20.8324,VALID,145,VALID,0.599219,
2011-12-27, 01:50:04,VALID,917.177,VALID,0,VALID,89.4227,VALID,0,VALID,20.8519,VALID,145,VALID,0,
2011-12-27, 01:51:04,VALID,917.141,VALID,0,VALID,89.3312,VALID,0,VALID,20.8519,VALID,145,VALID,0.248437,
2011-12-27, 01:52:04,VALID,917.102,VALID,0,VALID,89.2397,VALID,0,VALID,20.8519,VALID,145,VALID,0.203516,
2011-12-27, 01:53:04,VALID,917.076,VALID,0,VALID,89.2931,VALID,0,VALID,20.8519,VALID,145,VALID,0.2625,
2011-12-27, 01:54:04,VALID,917.04,VALID,0,VALID,89.3083,VALID,0,VALID,20.8519,VALID,145,VALID,0.343359,
2011-12-27, 01:55:04,VALID,916.962,VALID,0,VALID,89.2397,VALID,0,VALID,20.8519,VALID,145,VALID,0.530078,
2011-12-27, 01:56:04,VALID,916.929,VALID,0,VALID,89.1482,VALID,0,VALID,20.8324,VALID,145,VALID,0.512109,
2011-12-27, 01:57:04,VALID,916.923,VALID,0,VALID,89.0263,VALID,0,VALID,20.8324,VALID,145,VALID,0.865234,
2011-12-27, 01:58:04,VALID,916.893,VALID,0,VALID,88.8967,VALID,0,VALID,20.8519,VALID,145,VALID,0.777734,
2011-12-27, 01:59:04,VALID,916.902,VALID,0,VALID,89.7276,VALID,0,VALID,20.8714,VALID,145,VALID,0.641406,
2011-12-27, 02:00:04,VALID,916.901,VALID,0,VALID,89.8496,VALID,0,VALID,20.8324,VALID,145,VALID,0.548047,
2011-12-27, 02:01:04,VALID,916.906,VALID,0,VALID,89.9029,VALID,0,VALID,20.7739,VALID,145,VALID,0.694531,
2011-12-27, 02:02:04,VALID,916.867,VALID,0,VALID,89.8801,VALID,0,VALID,20.7349,VALID,145,VALID,1.00195,
2011-12-27, 02:03:04,VALID,916.82,VALID,0,VALID,89.8191,VALID,0,VALID,20.7349,VALID,145,VALID,0.471484,
2011-12-27, 02:04:04,VALID,916.774,VALID,0,VALID,89.9944,VALID,0,VALID,20.7349,VALID,145,VALID,0.150781,
2011-12-27, 02:05:04,VALID,916.774,VALID,0,VALID,89.7429,VALID,0,VALID,20.7349,VALID,145,VALID,0.188281,
2011-12-27, 02:06:04,VALID,916.768,VALID,0,VALID,89.7124,VALID,0,VALID,20.7349,VALID,145,VALID,0,
2011-12-27, 02:07:04,VALID,916.791,VALID,0,VALID,89.7429,VALID,0,VALID,20.7544,VALID,145,VALID,0,
2011-12-27, 02:08:04,VALID,916.799,VALID,0,VALID,89.9716,VALID,0,VALID,20.7544,VALID,145,VALID,0,
2011-12-27, 02:09:04,VALID,916.836,VALID,0,VALID,90.429,VALID,0,VALID,20.7528,VALID,145,VALID,0,
2011-12-27, 02:10:04,VALID,916.84,VALID,0,VALID,90.2308,VALID,0,VALID,20.7349,VALID,145,VALID,0.0570313,
2011-12-27, 02:11:04,VALID,916.853,VALID,0,VALID,90.0478,VALID,0,VALID,20.7349,VALID,145,VALID,0.0121094,
2011-12-27, 02:12:04,VALID,916.83,VALID,0,VALID,89.7047,VALID,0,VALID,20.7349,VALID,145,VALID,0,
2011-12-27, 02:13:04,VALID,916.811,VALID,0,VALID,89.1101,VALID,0,VALID,20.7349,VALID,145,VALID,0,
2011-12-27, 02:14:04,VALID,916.811,VALID,0,VALID,89.4608,VALID,0,VALID,20.7739,VALID,145,VALID,0,
2011-12-27, 02:15:04,VALID,916.802,VALID,0,VALID,89.2702,VALID,0,VALID,20.7739,VALID,145,VALID,0,
2011-12-27, 02:16:04,VALID,916.797,VALID,0,VALID,88.8128,VALID,0,VALID,20.7934,VALID,145,VALID,0,
2011-12-27, 02:17:04,VALID,916.768,VALID,0,VALID,88.4621,VALID,0,VALID,20.8129,VALID,145,VALID,0,
2011-12-27, 02:18:04,VALID,916.776,VALID,0,VALID,88.4545,VALID,0,VALID,20.8324,VALID,145,VALID,0,
2011-12-27, 02:19:04,VALID,916.786,VALID,0,VALID,88.7061,VALID,0.107441,VALID,20.8324,VALID,145,VALID,0,
2011-12-27, 02:20:04,VALID,916.787,VALID,0,VALID,89.8496,VALID,0,VALID,20.8324,VALID,145,VALID,0,
2011-12-27, 02:21:04,VALID,916.788,VALID,0,VALID,89.6819,VALID,0,VALID,20.7739,VALID,145,VALID,0,
2011-12-27, 02:22:04,VALID,916.748,VALID,0,VALID,89.5218,VALID,0,VALID,20.756,VALID,145,VALID,0,
2011-12-27, 02:23:04,VALID,916.743,VALID,0,VALID,89.5446,VALID,0,VALID,20.7365,VALID,145,VALID,0,
2011-12-27, 02:24:04,VALID,916.743,VALID,0,VALID,89.781,VALID,0,VALID,20.7154,VALID,145,VALID,0,
2011-12-27, 02:25:04,VALID,916.717,VALID,0,VALID,89.7276,VALID,0,VALID,20.6975,VALID,145,VALID,0,
2011-12-27, 02:26:04,VALID,916.691,VALID,0,VALID,89.255,VALID,0,VALID,20.6975,VALID,145,VALID,0,
2011-12-27, 02:27:04,VALID,916.678,VALID,0,VALID,88.8738,VALID,0,VALID,20.717,VALID,145,VALID,0,
2011-12-27, 02:28:04,VALID,916.642,VALID,0,VALID,88.1038,VALID,0,VALID,20.756,VALID,145,VALID,0.147656,
2011-12-27, 02:29:04,VALID,916.604,VALID,0,VALID,87.6769,VALID,0,VALID,20.8145,VALID,145,VALID,0.412891,
2011-12-27, 02:30:04,VALID,916.575,VALID,0,VALID,86.9451,VALID,0,VALID,20.8535,VALID,145,VALID,0.415625,
2011-12-27, 02:31:04,VALID,916.542,VALID,0,VALID,87.2729,VALID,0,VALID,20.873,VALID,145,VALID,0.759766,
2011-12-27, 02:32:04,VALID,916.477,VALID,0,VALID,87.7531,VALID,0,VALID,20.8535,VALID,145,VALID,0.622266,
2011-12-27, 02:33:04,VALID,916.465,VALID,0,VALID,87.2271,VALID,0,VALID,20.8356,VALID,145,VALID,0.698438,
2011-12-27, 02:34:04,VALID,916.44,VALID,0,VALID,87.2271,VALID,0,VALID,20.8145,VALID,145,VALID,0.473437,
2011-12-27, 02:35:04,VALID,916.453,VALID,0,VALID,87.9209,VALID,0,VALID,20.795,VALID,145,VALID,0.333594,
2011-12-27, 02:36:04,VALID,916.447,VALID,0,VALID,88.2487,VALID,0,VALID,20.717,VALID,145,VALID,0.855469,
2011-12-27, 02:37:04,VALID,916.414,VALID,0,VALID,88.4316,VALID,0,VALID,20.6374,VALID,145,VALID,0.804297,
2011-12-27, 02:38:04,VALID,916.433,VALID,0,VALID,88.668,VALID,0,VALID,20.5399,VALID,154,VALID,1.14414,
2011-12-27, 02:39:04,VALID,916.409,VALID,0,VALID,89.0339,VALID,0,VALID,20.4618,VALID,157,VALID,0.853516,
2011-12-27, 02:40:04,VALID,916.439,VALID,0,VALID,89.3083,VALID,0,VALID,20.4228,VALID,157,VALID,0.454688,
2011-12-27, 02:41:04,VALID,916.432,VALID,0,VALID,89.4303,VALID,0,VALID,20.3448,VALID,158,VALID,1.05898,
2011-12-27, 02:42:04,VALID,916.414,VALID,0,VALID,89.1406,VALID,0,VALID,20.3253,VALID,149,VALID,1.34531,
2011-12-27, 02:43:04,VALID,916.388,VALID,0,VALID,88.8052,VALID,0,VALID,20.3838,VALID,136,VALID,1.05938,
2011-12-27, 02:44:04,VALID,916.31,VALID,0,VALID,88.7442,VALID,0,VALID,20.3838,VALID,143,VALID,1.27109,
2011-12-27, 02:45:04,VALID,916.328,VALID,0,VALID,88.7899,VALID,0,VALID,20.4033,VALID,137,VALID,1.33086,
2011-12-27, 02:46:04,VALID,916.301,VALID,0,VALID,89.0796,VALID,0,VALID,20.3643,VALID,143,VALID,1.16797,
2011-12-27, 02:47:04,VALID,916.306,VALID,0,VALID,89.0415,VALID,0,VALID,20.3448,VALID,134,VALID,0.719141,
2011-12-27, 02:48:04,VALID,916.281,VALID,0,VALID,89.2092,VALID,0,VALID,20.3058,VALID,139,VALID,1.21953,
2011-12-27, 02:49:04,VALID,916.292,VALID,0,VALID,89.4684,VALID,0,VALID,20.2668,VALID,139,VALID,1.27969,
2011-12-27, 02:50:04,VALID,916.253,VALID,0,VALID,89.7276,VALID,0,VALID,20.2473,VALID,139,VALID,0.635547,
2011-12-27, 02:51:04,VALID,916.27,VALID,0,VALID,90.0325,VALID,0,VALID,20.1693,VALID,139,VALID,0.7625,
2011-12-27, 02:52:04,VALID,916.273,VALID,0,VALID,90.368,VALID,0,VALID,20.1108,VALID,139,VALID,0.760938,
2011-12-27, 02:53:04,VALID,916.272,VALID,0,VALID,90.368,VALID,0,VALID,20.0928,VALID,146,VALID,1.3793,
2011-12-27, 02:54:04,VALID,916.285,VALID,0,VALID,90.0707,VALID,0.107441,VALID,20.0718,VALID,155,VALID,1.51563,
2011-12-27, 02:55:04,VALID,916.289,VALID,0,VALID,89.72,VALID,0,VALID,20.0913,VALID,166,VALID,1.50391,
2011-12-27, 02:56:04,VALID,916.246,VALID,0,VALID,89.2092,VALID,0.107441,VALID,20.1108,VALID,180,VALID,2.03711,
2011-12-27, 02:57:04,VALID,916.263,VALID,0,VALID,88.8204,VALID,0,VALID,20.1693,VALID,160,VALID,1.97461,
2011-12-27, 02:58:04,VALID,916.278,VALID,0,VALID,88.5993,VALID,0,VALID,20.1888,VALID,173,VALID,1.46172,
2011-12-27, 02:59:04,VALID,916.24,VALID,0,VALID,88.6146,VALID,0,VALID,20.2278,VALID,162,VALID,1.19219,
2011-12-27, 03:00:04,VALID,916.278,VALID,0,VALID,88.5307,VALID,0,VALID,20.1888,VALID,142,VALID,1.29648,
2011-12-27, 03:01:04,VALID,916.29,VALID,0,VALID,88.485,VALID,0,VALID,20.1888,VALID,141,VALID,1.51016,
2011-12-27, 03:02:04,VALID,916.304,VALID,0,VALID,88.3859,VALID,0,VALID,20.2083,VALID,162,VALID,1.42773,
2011-12-27, 03:03:04,VALID,916.32,VALID,0,VALID,88.424,VALID,0,VALID,20.2278,VALID,160,VALID,1.10312,
2011-12-27, 03:04:04,VALID,916.34,VALID,0,VALID,88.485,VALID,0,VALID,20.2489,VALID,154,VALID,0.925391,
2011-12-27, 03:05:04,VALID,916.357,VALID,0,VALID,88.3173,VALID,0,VALID,20.2083,VALID,125,VALID,1.41836,
2011-12-27, 03:06:04,VALID,916.352,VALID,0,VALID,88.1114,VALID,0,VALID,20.1888,VALID,149,VALID,1.2543,
2011-12-27, 03:07:04,VALID,916.396,VALID,0,VALID,88.0886,VALID,0,VALID,20.2278,VALID,146,VALID,1.96367,
2011-12-27, 03:08:04,VALID,916.38,VALID,0,VALID,87.654,VALID,0,VALID,20.3058,VALID,115,VALID,1.18164,
2011-12-27, 03:09:04,VALID,916.4,VALID,0,VALID,87.8065,VALID,0,VALID,20.3058,VALID,121,VALID,1.04297,
2011-12-27, 03:10:04,VALID,916.388,VALID,0,VALID,87.8675,VALID,0,VALID,20.2863,VALID,127,VALID,1.00547,
2011-12-27, 03:11:04,VALID,916.419,VALID,0,VALID,87.7455,VALID,0,VALID,20.2848,VALID,131,VALID,1.47109,
2011-12-27, 03:12:04,VALID,916.414,VALID,0,VALID,87.3034,VALID,0.107441,VALID,20.2863,VALID,136,VALID,2.38477,
2011-12-27, 03:13:04,VALID,916.42,VALID,0,VALID,87.4863,VALID,0,VALID,20.3253,VALID,111,VALID,1.22891,
2011-12-27, 03:14:04,VALID,916.436,VALID,0,VALID,87.8599,VALID,0,VALID,20.3058,VALID,111,VALID,0.835156,
2011-12-27, 03:15:04,VALID,916.48,VALID,0,VALID,87.6388,VALID,0.107441,VALID,20.3058,VALID,126,VALID,1.525,
2011-12-27, 03:16:04,VALID,916.511,VALID,0,VALID,87.6007,VALID,0,VALID,20.3253,VALID,120,VALID,0.664453,
2011-12-27, 03:17:04,VALID,916.526,VALID,0,VALID,87.8141,VALID,0.107441,VALID,20.3253,VALID,120,VALID,0.303516,
2011-12-27, 03:18:04,VALID,916.527,VALID,0,VALID,87.9742,VALID,0,VALID,20.3269,VALID,120,VALID,0.414844,
2011-12-27, 03:19:04,VALID,916.533,VALID,0,VALID,88.0352,VALID,0.107441,VALID,20.2863,VALID,120,VALID,0.0835937,
2011-12-27, 03:20:04,VALID,916.576,VALID,0,VALID,88.2715,VALID,0,VALID,20.2863,VALID,120,VALID,0.0265625,
2011-12-27, 03:21:04,VALID,916.564,VALID,0,VALID,88.3478,VALID,0.107441,VALID,20.2863,VALID,120,VALID,0.349609,
2011-12-27, 03:22:04,VALID,916.557,VALID,0,VALID,88.2029,VALID,0,VALID,20.2668,VALID,90,VALID,1.16016,
2011-12-27, 03:23:04,VALID,916.525,VALID,0,VALID,88.302,VALID,0.107441,VALID,20.2863,VALID,85,VALID,0.591406,
2011-12-27, 03:24:04,VALID,916.54,VALID,0,VALID,88.2715,VALID,0,VALID,20.2879,VALID,99,VALID,0.683594,
2011-12-27, 03:25:04,VALID,916.554,VALID,0,VALID,88.3097,VALID,0.107441,VALID,20.2668,VALID,99,VALID,0.186328,
2011-12-27, 03:26:04,VALID,916.524,VALID,0,VALID,88.3325,VALID,0,VALID,20.2668,VALID,99,VALID,0,
2011-12-27, 03:27:04,VALID,916.553,VALID,0,VALID,88.828,VALID,0,VALID,20.2668,VALID,99,VALID,0.553125,
2011-12-27, 03:28:04,VALID,916.534,VALID,0,VALID,89.9106,VALID,0.107441,VALID,20.2473,VALID,99,VALID,0.537891,
2011-12-27, 03:29:04,VALID,916.586,VALID,0,VALID,90.9016,VALID,0.107441,VALID,20.2083,VALID,99,VALID,0.512109,
2011-12-27, 03:30:04,VALID,916.585,VALID,0,VALID,91.5725,VALID,0,VALID,20.1498,VALID,99,VALID,0.560547,
2011-12-27, 03:31:04,VALID,916.557,VALID,0,VALID,92.0909,VALID,0.107441,VALID,20.0928,VALID,99,VALID,0.201562,
2011-12-27, 03:32:04,VALID,916.599,VALID,0,VALID,92.3958,VALID,0,VALID,20.0133,VALID,98,VALID,0.453516,
2011-12-27, 03:33:04,VALID,916.573,VALID,0,VALID,92.5635,VALID,0,VALID,19.9548,VALID,98,VALID,0.300781,
2011-12-27, 03:34:04,VALID,916.599,VALID,0,VALID,92.6626,VALID,0,VALID,19.9353,VALID,99,VALID,0.279297,
2011-12-27, 03:35:04,VALID,916.582,VALID,0,VALID,92.6169,VALID,0,VALID,19.9158,VALID,99,VALID,0.159766,
2011-12-27, 03:36:04,VALID,916.572,VALID,0,VALID,92.2662,VALID,0,VALID,19.9353,VALID,99,VALID,0.301172,
2011-12-27, 03:37:04,VALID,916.587,VALID,0,VALID,91.9918,VALID,0,VALID,19.9548,VALID,99,VALID,0,
2011-12-27, 03:38:04,VALID,916.566,VALID,0,VALID,91.6411,VALID,0,VALID,19.9953,VALID,99,VALID,0,
2011-12-27, 03:39:04,VALID,916.547,VALID,0,VALID,91.1989,VALID,0,VALID,19.9938,VALID,98,VALID,0,
2011-12-27, 03:40:04,VALID,916.569,VALID,0,VALID,91.2675,VALID,0,VALID,20.0328,VALID,99,VALID,0,
2011-12-27, 03:41:04,VALID,916.546,VALID,0,VALID,91.0998,VALID,0,VALID,20.0328,VALID,99,VALID,0,
2011-12-27, 03:42:04,VALID,916.554,VALID,0,VALID,90.8787,VALID,0,VALID,20.0523,VALID,99,VALID,0,
2011-12-27, 03:43:04,VALID,916.541,VALID,0,VALID,91.0465,VALID,0,VALID,20.0523,VALID,99,VALID,0.04375,
2011-12-27, 03:44:04,VALID,916.511,VALID,0,VALID,90.7034,VALID,0,VALID,20.0328,VALID,98,VALID,0.570313,